* Astronomy

Members Login
Username 
 
Password 
    Remember Me  
Post Info TOPIC: Asteroid 2012 BO11


L

Posts: 131433
Date:
Asteroid 2012 BO11
Permalink  
 


Orbital elements:
2012 BO11                                                Earth MOID = 0.0016 AU
Epoch 2012 Mar. 14.0 TT = JDT 2456000.5                 MPC
M  62.96345              (2000.0)            P               Q
n   0.63043196     Peri.  321.21541     +0.45423274     -0.89085289
a   1.3470299      Node   101.76790     +0.81922397     +0.41444805
e   0.3390709      Incl.    0.42911     +0.35006387     +0.18604825
P   1.56           H   25.5           G   0.15           U   8

MPEC 2012 - B31



__________________
Page 1 of 1  sorted by
 
Quick Reply

Please log in to post quick replies.



Create your own FREE Forum
Report Abuse
Powered by ActiveBoard